Location: Gilevgi
(36.8751°N, 30.0581°E)
Time: 17:04:43
(UTC+00:00)

Cosmos 1697 Rocket - Pass Details

Date: 11 December 2025
Orbit: 831 x 843 km, 71.0° (Epoch: 15 January)

Event Time Altitude Azimuth Distance (km) Brightness Sun altitude
Rises 15:21:47 0° 205° (SSW) 3,357 6.6 -7.7°
Reaches altitude 10° 15:24:13 10° 206° (SSW) 2,427 5.9 -8.2°
Maximum altitude 15:29:46 76° 292° (WNW) 860 2.9 -9.2°
Drops below altitude 10° 15:35:23 10° 19° (NNE) 2,446 4.7 -10.2°
Enters shadow 15:37:43 - 21° (NNE) 3,340 5.4 -10.7°
